Regional Weather Roundup
Issued by NWS

Home | Current Version | Previous Version | Text Only | Print | Product List | Glossary Off
Versions: 1 2 3 4 5 6 7 8 9 10 11 12 13 14 15 16 17 18 19 20 21 22 23 24 25 26 27 28

000
ASUS45 KTFX 242210
RWRMT
MONTANA REGIONAL WEATHER ROUNDUP
NATIONAL WEATHER SERVICE GREAT FALLS MT
400 PM MDT SUN JUL 24 2016

NOTE: "FAIR" INDICATES FEW OR NO CLOUDS BELOW 12000 FEET WITH NO
SIGNIFICANT WEATHER AND/OR OBSTRUCTIONS TO VISIBILITY.

MTZ001>007-043-242300-
WEST OF THE DIVIDE

CITY           SKY/WX    TMP DP  RH WIND       PRES   REMARKS
KALISPELL      SUNNY     80  48  32 VRB6      30.06F
MISSOULA       SUNNY     84  40  21 CALM      30.07F
BUTTE          SUNNY     82  33  17 VRB3      30.17F
MULLAN PASS    SUNNY     69  46  43 VRB3      30.24F
ANACONDA         N/A     81  36  19 NE6       30.12S
DEER LODGE       N/A     81  36  19 N7        30.15F
EUREKA           N/A     82  46  28 NE5       30.04F
HAMILTON         N/A     81  43  26 N6        30.08S
LIBBY            N/A     82  46  28 SW6       30.05S
PLAINS           N/A     88  47  24 N3        30.04F
RONAN            N/A     80  43  27 W3        30.13F
$$

MTZ008-052>055-242300-
SOUTHWEST MONTANA

CITY           SKY/WX    TMP DP  RH WIND       PRES   REMARKS
BOZEMAN        SUNNY     83  43  24 NW8       30.11F
DILLON         SUNNY     83  36  18 SW5       30.12F
W YELLOWSTONE  SUNNY     77  28  16 S14       30.25F
ENNIS          SUNNY     82  34  17 VRB6      30.19F
THREE FORKS      N/A     85  85 100 SE6       30.08F HX 107
TWIN BRIDGES     N/A     84  33  16 E3        30.11F
$$

MTZ009-010-012-014-046-048-049-054-242300-
EAST SLOPES AND CENTRAL MONTANA

CITY           SKY/WX    TMP DP  RH WIND       PRES   REMARKS
CUT BANK         N/A     81  40  23 CALM      30.03F
GREAT FALLS    SUNNY     85  33  15 MISG      30.05F
MALMSTROM AFB  SUNNY     82  36  19 NW9       30.05F
HELENA         SUNNY     89  34  14 N8        30.05F
CHOTEAU          N/A     84  36  17 VRB7      30.07S
CONRAD           N/A     84  45  25 SE3       30.06F
$$

MTZ011-013-016-021-045-047-050-051-242300-
NORTH CENTRAL MONTANA

CITY           SKY/WX    TMP DP  RH WIND       PRES   REMARKS
HAVRE          SUNNY     84  40  21 VRB7      29.99F
LEWISTOWN      SUNNY     81  45  28 VRB6      30.09F
N BAR RANCH      N/A     84  39  20 NE12      30.11S
CHINOOK          N/A     84  43  23 CALM      30.00F
$$

MTZ017>020-022>027-061-062-242300-
NORTHEAST MONTANA

CITY           SKY/WX    TMP DP  RH WIND       PRES   REMARKS
GLASGOW        SUNNY     88  46  23 NW9G22    29.98S
JORDAN           N/A     89  41  18 W8        30.00F
SIDNEY         MOSUNNY   86  56  35 SE8       30.00F
WOLF POINT     SUNNY     90  48  23 SW10      29.97F
PLENTYWOOD       N/A     82  54  36 SW6       30.00F
POPLAR           N/A     88  52  29 S9        29.99F
SCOBEY           N/A    100  66  32 SW5       30.00F HX 103
$$

MTZ028>42-056>058-242300-
SOUTHCENTRAL AND SOUTHEAST MONTANA

CITY           SKY/WX    TMP DP  RH WIND       PRES   REMARKS
BAKER          SUNNY     87  45  23 VRB3      30.06F
BILLINGS       MOSUNNY   89  38  16 W9        30.04F
LIVINGSTON     SUNNY     88  37  16 W12G20    30.08F
MILES CITY     SUNNY     92  42  17 S7        29.99F
EKALAKA          N/A     86  42  21 S1        30.06F
FORSYTH          N/A     91  43  18 SW7       29.99F
LAUREL           N/A     88  43  20 S5        30.03F
ROUNDUP          N/A     87  37  17 NW6       29.96F
$$

REGIONAL REPORTS...DAKOTAS

CITY           SKY/WX    TMP DP  RH WIND       PRES   REMARKS
WILLISTON      MOSUNNY   87  50  27 NW9       30.00F
MINOT          SUNNY     84  55  36 NW15      29.99S
DICKINSON      MOSUNNY   82  48  30 NW8       30.05F
CROSBY           N/A     77  61  57 NW7       30.02F
WATFORD CITY     N/A    N/A N/A N/A MISG        N/A
BISMARCK       SUNNY     84  53  34 NW14G26   30.02F
GRAND FORKS    MOSUNNY   79  62  56 NW15      29.89S
FARGO          SUNNY     82  58  43 NW15G28   29.93R
BUFFALO SD       N/A     89  44  20 VRB7      30.01F
RAPID CITY     SUNNY     87  47  24 VRB7G17   30.10F
$$

REGIONAL REPORTS...WYOMING/IDAHO/WASHINGTON

CITY           SKY/WX    TMP DP  RH WIND       PRES   REMARKS
GILLETTE       SUNNY     86  40  19 SE10G26   30.12S
SHERIDAN       SUNNY     90  39  16 N3        30.06F
BUFFALO WY     SUNNY     87  40  19 SE13      30.14S
CODY           SUNNY     84  39  20 E8        30.12F
YELLOWSTONE LA   N/A     74  19  12 VRB5      30.35S
IDAHO FALLS    SUNNY     84  31  14 W7        30.14F
SALMON         SUNNY     86  39  19 N7        30.02F
BOISE          SUNNY     89  33  13 MISG      30.02F
SPOKANE        MOSUNNY   85  42  22 NE6       30.06F
$$

REGIONAL REPORTS...ALBERTA

CITY           SKY/WX    TMP DP  RH WIND       PRES   REMARKS
EDMONTON       MOSUNNY   79  52  38 SW8       29.86F
CALGARY        MOSUNNY   77  48  36 S17       29.97F
LETHBRIDGE     MOSUNNY   81  46  30 W6G20     30.00F
MEDICINE HAT   MOSUNNY   81  54  39 CALM      29.97S
WATERTON GATE    N/A     77  46  33 SW18G25     N/A
CARDSTON         N/A     81  48  32 NW2         N/A
MILK RIVER       N/A     82  43  24 N5          N/A
$$

REGIONAL REPORTS...SASKATCHEWAN

CITY           SKY/WX    TMP DP  RH WIND       PRES   REMARKS
SWIFT CURRENT  SUNNY     77  57  50 W3        30.00S
REGINA         MOSUNNY   77  54  44 NW15G21   29.99F
SASKATOON      MOSUNNY   77  55  47 W9G18     29.95S
CYPRESS HILLS    N/A     75  48  38 SW7         N/A
VAL MARIE        N/A     82  46  28 SW8         N/A
ROCKGLEN         N/A     81  46  30 W13         N/A
ASSINIBOIA       N/A     81  54  39 SW13G18     N/A
$$




USA.gov is the U.S. government's official web portal to all federal, state and local government web resources and services.